United States

Ashburn, VA Weather Archive

Below you will find the last 24 hours of weather readings for Ashburn VA

Ashburn VA Today's Weather Data

Observed at: Ashburn, VA

Hour Observerd Temp Pressure Visibility Humidity Dew Point Wind
10:00 Fair 50°F (10°C) 103.56 kPa 10 miles 75% 42.4°F (5.8°C) 1 mph NW 311°3 mph
09:00 Fair 45°F (7.2°C) 103.59 kPa 10 miles 81% 39.5°F (4.2°C) 2 mph NNW 335°4 mph
08:00 Fair 44°F (6.7°C) 103.56 kPa 10 miles 83% 39.2°F (4°C) 2 mph NNW 334°4 mph
07:00 Fair 44°F (6.7°C) 103.49 kPa 10 miles 84% 39.5°F (4.2°C) 1 mph NNW 332°3 mph
06:00 Fair 45°F (7.2°C) 103.49 kPa 10 miles 84% 40.5°F (4.7°C) 1 mph NW 323°4 mph
05:00 Fair 45°F (7.2°C) 103.45 kPa 10 miles 85% 40.8°F (4.9°C) 1 mph NW 307°3 mph
04:00 Fair 44°F (6.7°C) 103.42 kPa 10 miles 87% 40.4°F (4.7°C) 1 mph W 270°2 mph
03:00 Fair 46°F (7.8°C) 103.45 kPa 10 miles 86% 42°F (5.6°C) 1 mph NE 45°
02:00 Fair 47°F (8.3°C) 103.45 kPa 10 miles 85% 42.7°F (6°C) 1 mph ENE 60°2 mph
01:00 Fair 47°F (8.3°C) 103.42 kPa 10 miles 82% 41.8°F (5.4°C) 1 mph NE 45°
00:00 Fair 49°F (9.4°C) 103.45 kPa 10 miles 77% 42.1°F (5.6°C) 1 mph SSW 210°
23:00 Fair 51°F (10.6°C) 103.42 kPa 10 miles 74% 43°F (6.1°C) 1 mph SW 225°
22:00 Fair 54°F (12.2°C) 103.39 kPa 10 miles 70% 44.4°F (6.9°C) 1 mph SW 225°
21:00 Fair 57°F (13.9°C) 103.39 kPa 10 miles 61% 43.7°F (6.5°C) 1 mph WSW 237°2 mph
20:00 Fair 60°F (15.6°C) 103.28 kPa 10 miles 56% 44.3°F (6.8°C) 1 mph SW 233°2 mph
19:00 Fair 70°F (21.1°C) 103.18 kPa 10 miles 43% 46.5°F (8°C) 1 mph SW 225°3 mph
18:00 Fair 72°F (22.2°C) 103.25 kPa 10 miles 40% 46.3°F (8°C) 1 mph SW 220°3 mph
17:00 Fair 73°F (22.8°C) 103.18 kPa 10 miles 40% 47.2°F (8.5°C) 2 mph SW 216°4 mph
16:00 Fair 73°F (22.8°C) 103.18 kPa 10 miles 41% 47.9°F (8.8°C) 2 mph SSW 212°4 mph
15:00 Fair 70°F (21.1°C) 103.22 kPa 10 miles 42% 45.8°F (7.7°C) 2 mph SW 236°4 mph
14:00 Fair 68°F (20°C) 103.25 kPa 10 miles 46% 46.4°F (8°C) 1 mph NW 315°4 mph
13:00 Fair 65°F (18.3°C) 103.32 kPa 10 miles 49% 45.4°F (7.4°C) 1 mph WSW 251°4 mph
12:00 Fair 59°F (15°C) 103.35 kPa 10 miles 61% 45.6°F (7.5°C) 1 mph WSW 246°4 mph
11:00 Fair 53°F (11.7°C) 103.35 kPa 10 miles 72% 44.2°F (6.8°C) 1 mph WNW 291°4 mph


Home | Earthquakes | About Us | Contact Us | Privacy

Copyright Friendly Forecast 2012 - 2020